• In Uzbekistan
  • List of Countries
  • For 7 days
  • Water Temperature
  • Satellite Maps
  • Weather Map
  • Weather Widgets
  • user-avatar
    Login

    Hourly Weather Radlna

    Today, 20 February, Wednesday

    Time Temperature Precipitation Wind Pressure Humidity
    00:00 +4°C° 0.2 mm 4 mps 743 mmHg 83%
    01:00 +4°C° 0 mm 4 mps 743 mmHg 85%
    02:00 +4°C° 0.1 mm 4 mps 744 mmHg 86%
    03:00 +4°C° 0.1 mm 4 mps 744 mmHg 87%
    04:00 +3°C° 0.1 mm 4 mps 744 mmHg 88%
    05:00 +2°C° 0 mm 5 mps 744 mmHg 87%
    06:00 +2°C° 0 mm 5 mps 744 mmHg 86%
    07:00 +2°C° 0 mm 5 mps 744 mmHg 86%
    08:00 +3°C° 0.1 mm 5 mps 745 mmHg 82%
    09:00 +3°C° 0.1 mm 6 mps 745 mmHg 77%
    10:00 +4°C° 0.1 mm 6 mps 745 mmHg 73%
    11:00 +4°C° 0.1 mm 6 mps 745 mmHg 70%
    12:00 +5°C° 0.1 mm 7 mps 746 mmHg 66%
    13:00 +5°C° 0.1 mm 7 mps 746 mmHg 63%
    14:00 +5°C° 0.1 mm 6 mps 746 mmHg 62%
    15:00 +5°C° 0.1 mm 6 mps 746 mmHg 62%
    16:00 +6°C° 0.1 mm 5 mps 746 mmHg 61%
    17:00 +5°C° 0 mm 5 mps 746 mmHg 65%
    18:00 +5°C° 0 mm 4 mps 747 mmHg 69%
    19:00 +4°C° 0 mm 3 mps 747 mmHg 74%
    20:00 +4°C° 0 mm 3 mps 747 mmHg 75%
    21:00 +4°C° 0 mm 3 mps 748 mmHg 76%
    22:00 +4°C° 0 mm 4 mps 748 mmHg 77%
    23:00 +3°C° 0 mm 4 mps 748 mmHg 78%

    Tomorrow, 21 February, Thursday

    Time Temperature Precipitation Wind Pressure Humidity
    00:00 +3°C° 0 mm 4 mps 749 mmHg 80%
    01:00 +3°C° 0 mm 4 mps 749 mmHg 82%
    02:00 +3°C° 0 mm 4 mps 749 mmHg 82%
    03:00 +3°C° 0 mm 4 mps 749 mmHg 82%
    04:00 +3°C° 0 mm 4 mps 749 mmHg 82%
    05:00 +1°C° 0 mm 4 mps 749 mmHg 82%
    06:00 +1°C° 0 mm 4 mps 749 mmHg 81%
    07:00 +1°C° 0 mm 4 mps 749 mmHg 81%
    08:00 +3°C° 0 mm 4 mps 750 mmHg 76%
    09:00 +4°C° 0 mm 4 mps 750 mmHg 70%
    10:00 +6°C° 0 mm 5 mps 750 mmHg 65%
    11:00 +7°C° 0 mm 5 mps 749 mmHg 62%
    12:00 +7°C° 0 mm 5 mps 749 mmHg 58%
    13:00 +8°C° 0 mm 5 mps 749 mmHg 55%
    14:00 +8°C° 0 mm 5 mps 748 mmHg 58%
    15:00 +8°C° 0 mm 4 mps 748 mmHg 60%
    16:00 +7°C° 0 mm 4 mps 747 mmHg 62%
    17:00 +7°C° 0.5 mm 4 mps 747 mmHg 67%
    18:00 +6°C° 0.5 mm 4 mps 747 mmHg 72%
    19:00 +6°C° 0.5 mm 5 mps 747 mmHg 77%
    20:00 +6°C° 0.8 mm 5 mps 747 mmHg 78%
    21:00 +4°C° 0.8 mm 6 mps 746 mmHg 79%
    22:00 +4°C° 0.8 mm 6 mps 746 mmHg 80%
    23:00 +4°C° 0.5 mm 6 mps 745 mmHg 80%

    Day after tomorrow, 22 February, Friday

    Time Temperature Precipitation Wind Pressure Humidity
    00:00 +4°C° 0.5 mm 6 mps 745 mmHg 81%
    01:00 +4°C° 0.5 mm 6 mps 745 mmHg 82%
    02:00 +4°C° 0.6 mm 6 mps 744 mmHg 84%
    03:00 +4°C° 0.6 mm 6 mps 744 mmHg 86%
    04:00 +4°C° 0.6 mm 6 mps 743 mmHg 88%
    05:00 +4°C° 0.8 mm 6 mps 744 mmHg 88%
    06:00 +4°C° 0.8 mm 6 mps 744 mmHg 88%
    07:00 +4°C° 0.8 mm 6 mps 744 mmHg 88%
    08:00 +2°C° 0.6 mm 7 mps 746 mmHg 85%
    09:00 -1°C° 0.6 mm 7 mps 747 mmHg 82%
    10:00 -3°C° 0.6 mm 7 mps 748 mmHg 79%
    11:00 -3°C° 0.1 mm 7 mps 749 mmHg 74%
    12:00 -3°C° 0.1 mm 7 mps 750 mmHg 70%
    13:00 -3°C° 0.1 mm 6 mps 752 mmHg 66%
    14:00 -3°C° 0 mm 6 mps 752 mmHg 62%
    15:00 -3°C° 0 mm 6 mps 753 mmHg 59%
    16:00 -4°C° 0 mm 6 mps 754 mmHg 56%
    17:00 -4°C° 0 mm 6 mps 754 mmHg 58%
    18:00 -5°C° 0 mm 6 mps 755 mmHg 60%
    19:00 -6°C° 0 mm 5 mps 756 mmHg 62%
    20:00 -6°C° 0 mm 5 mps 756 mmHg 60%
    21:00 -7°C° 0 mm 5 mps 757 mmHg 58%
    22:00 -7°C° 0 mm 5 mps 757 mmHg 56%
    23:00 -7°C° 0 mm 5 mps 758 mmHg 53%

    23 February, Saturday

    Time Temperature Precipitation Wind Pressure Humidity
    00:00 -7°C° 0 mm 5 mps 758 mmHg 50%
    01:00 -7°C° 0 mm 5 mps 759 mmHg 46%
    02:00 -7°C° 0 mm 4 mps 759 mmHg 46%
    03:00 -8°C° 0 mm 4 mps 759 mmHg 45%
    04:00 -8°C° 0 mm 4 mps 759 mmHg 44%
    05:00 -8°C° 0 mm 4 mps 759 mmHg 46%
    06:00 -8°C° 0 mm 4 mps 759 mmHg 47%
    07:00 -7°C° 0 mm 3 mps 760 mmHg 48%
    08:00 -8°C° 0 mm 4 mps 760 mmHg 46%
    09:00 -7°C° 0 mm 4 mps 760 mmHg 44%
    10:00 -5°C° 0 mm 4 mps 761 mmHg 41%
    11:00 -5°C° 0 mm 4 mps 760 mmHg 39%
    12:00 -4°C° 0 mm 4 mps 760 mmHg 36%
    13:00 -2°C° 0 mm 3 mps 760 mmHg 34%
    14:00 -2°C° 0 mm 3 mps 760 mmHg 34%
    15:00 -4°C° 0 mm 4 mps 760 mmHg 35%
    16:00 -4°C° 0 mm 4 mps 760 mmHg 35%
    17:00 -4°C° 0 mm 3 mps 760 mmHg 39%
    18:00 -4°C° 0 mm 2 mps 760 mmHg 42%
    19:00 -4°C° 0 mm 2 mps 760 mmHg 45%
    20:00 -4°C° 0 mm 2 mps 760 mmHg 45%
    21:00 -2°C° 0 mm 1 mps 760 mmHg 46%
    22:00 -3°C° 0 mm 1 mps 760 mmHg 46%
    23:00 -3°C° 0 mm 1 mps 760 mmHg 47%

    24 February, Sunday

    Time Temperature Precipitation Wind Pressure Humidity
    00:00 -3°C° 0 mm 1 mps 760 mmHg 47%
    01:00 -3°C° 0 mm 1 mps 760 mmHg 47%
    02:00 -3°C° 0 mm 1 mps 760 mmHg 47%
    03:00 -3°C° 0 mm 1 mps 759 mmHg 47%
    04:00 -3°C° 0 mm 1 mps 759 mmHg 47%
    05:00 -3°C° 0 mm 1 mps 759 mmHg 47%
    06:00 -5°C° 0 mm 2 mps 759 mmHg 46%
    07:00 -5°C° 0 mm 2 mps 759 mmHg 46%
    08:00 -4°C° 0 mm 2 mps 759 mmHg 41%
    09:00 -3°C° 0 mm 2 mps 759 mmHg 35%
    10:00 -1°C° 0 mm 3 mps 759 mmHg 30%
    11:00 -1°C° 0 mm 2 mps 759 mmHg 30%
    12:00 +1°C° 0 mm 2 mps 759 mmHg 31%
    13:00 +2°C° 0 mm 2 mps 758 mmHg 31%
    14:00 +2°C° 0 mm 2 mps 758 mmHg 35%
    15:00 +2°C° 0 mm 2 mps 758 mmHg 39%
    16:00 +1°C° 0 mm 2 mps 758 mmHg 42%
    17:00 +1°C° 0 mm 2 mps 758 mmHg 45%
    18:00 -1°C° 0 mm 2 mps 758 mmHg 48%
    19:00 0°C° 0 mm 1 mps 758 mmHg 51%
    20:00 -2°C° 0 mm 2 mps 758 mmHg 52%
    21:00 -2°C° 0 mm 2 mps 758 mmHg 53%
    22:00 -3°C° 0 mm 2 mps 758 mmHg 53%
    23:00 -3°C° 0 mm 2 mps 758 mmHg 54%

    25 February, Monday

    Time Temperature Precipitation Wind Pressure Humidity
    00:00 -3°C° 0 mm 2 mps 758 mmHg 55%
    01:00 -3°C° 0 mm 2 mps 758 mmHg 55%
    02:00 -3°C° 0 mm 2 mps 757 mmHg 55%
    03:00 -2°C° 0 mm 2 mps 757 mmHg 56%
    04:00 -2°C° 0 mm 2 mps 757 mmHg 56%
    05:00 -2°C° 0 mm 3 mps 756 mmHg 55%
    06:00 -2°C° 0 mm 3 mps 756 mmHg 55%
    07:00 -2°C° 0 mm 3 mps 756 mmHg 55%
    08:00 -1°C° 0 mm 4 mps 756 mmHg 53%
    09:00 0°C° 0 mm 5 mps 756 mmHg 52%
    10:00 +1°C° 0 mm 5 mps 755 mmHg 50%
    11:00 +2°C° 0 mm 5 mps 755 mmHg 53%
    12:00 +3°C° 0 mm 6 mps 755 mmHg 56%
    13:00 +4°C° 0 mm 6 mps 754 mmHg 59%
    14:00 +3°C° 0 mm 5 mps 754 mmHg 66%
    15:00 +3°C° 0 mm 5 mps 754 mmHg 74%
    16:00 +3°C° 0 mm 4 mps 754 mmHg 81%
    17:00 +1°C° 0 mm 4 mps 755 mmHg 84%
    18:00 +1°C° 0 mm 3 mps 755 mmHg 86%
    19:00 +1°C° 0 mm 3 mps 756 mmHg 89%
    20:00 +1°C° 0 mm 2 mps 756 mmHg 90%
    21:00 -1°C° 0 mm 2 mps 756 mmHg 92%
    22:00 -1°C° 0 mm 2 mps 756 mmHg 93%
    23:00 -2°C° 0 mm 2 mps 756 mmHg 94%
    Show more